Location: Songkhla
(7.2000°N, 100.6000°E)
Time: 16:23:46
(UTC+07:00)

SL-8 DEB - All Passes

Search period start: 29 November 2021 00:00
Search period end: 09 December 2021 00:00
Orbit: 1414 x 1696 km, 73.9° (Epoch: 02 June)

Date Brightness Start Highest point End Pass type
(mag) Time Alt. Az. Time Alt. Az. Time Alt. Az.
29 Nov - 06:36:25 10° SE 06:40:37 15° E 06:44:50 10° ENE daylight
29 Nov - 08:31:21 10° SSW 08:39:37 61° WNW 08:48:07 10° N daylight
29 Nov - 19:09:21 10° N 19:18:53 53° ENE 19:28:18 10° SSE visible
29 Nov - 21:10:46 10° NW 21:18:02 24° W 21:25:18 10° SSW visible
30 Nov - 07:57:41 10° SSW 08:06:07 89° ESE 08:14:47 10° NNE daylight
30 Nov - 18:36:36 10° NNE 18:45:20 35° ENE 18:53:57 10° SE visible
30 Nov - 20:35:55 10° NW 20:44:38 36° W 20:53:18 10° SSW visible
01 Dec - 07:24:26 10° S 07:32:40 59° E 07:41:05 10° NNE daylight
01 Dec - 09:27:27 10° WSW 09:32:11 16° WNW 09:37:03 10° NW daylight
01 Dec - 18:04:27 10° NNE 18:11:43 23° ENE 18:18:54 10° ESE visible
01 Dec - 20:01:41 10° NNW 20:11:13 54° W 20:20:39 10° S visible
02 Dec - 06:51:38 10° SSE 06:59:14 38° E 07:06:57 10° NE daylight
02 Dec - 08:51:46 10° SW 08:58:31 27° WNW 09:05:28 10° NNW daylight
02 Dec - 17:33:34 10° NE 17:38:02 14° ENE 17:42:28 10° E daylight
02 Dec - 19:27:52 10° NNW 19:37:46 79° WSW 19:47:32 10° S visible
03 Dec - 06:19:29 10° SSE 06:25:49 24° E 06:32:14 10° NE daylight
03 Dec - 08:17:07 10° SW 08:24:55 42° WNW 08:32:59 10° N daylight
03 Dec - 18:54:25 10° N 19:04:18 73° ENE 19:14:01 10° SSE visible
03 Dec - 20:58:23 10° WNW 21:03:20 15° W 21:08:17 10° SW visible
04 Dec - 05:48:39 10° SE 05:52:25 14° E 05:56:12 10° ENE visible
04 Dec - 07:43:04 10° SSW 07:51:22 65° WNW 08:00:00 10° N daylight
04 Dec - 18:21:19 10° N 18:30:47 50° ENE 18:40:05 10° SSE visible
04 Dec - 20:22:27 10° NW 20:29:56 25° W 20:37:22 10° SSW visible
05 Dec - 07:09:26 10° S 07:17:53 84° ESE 07:26:37 10° NNE daylight
05 Dec - 17:48:38 10° NNE 17:57:14 34° ENE 18:05:40 10° SE daylight
05 Dec - 19:47:42 10° NW 19:56:33 38° W 20:05:17 10° SSW visible
06 Dec - 06:36:15 10° S 06:44:26 56° E 06:52:52 10° NNE daylight
06 Dec - 08:38:48 10° WSW 08:43:57 17° WNW 08:49:14 10° NW daylight
06 Dec - 17:16:35 10° NNE 17:23:36 22° ENE 17:30:30 10° ESE daylight
06 Dec - 19:13:32 10° NNW 19:23:08 57° W 19:32:35 10° S visible
07 Dec - 06:03:31 10° SSE 06:11:01 36° E 06:18:41 10° NE daylight
07 Dec - 08:03:20 10° SW 08:10:17 28° WNW 08:17:29 10° NNW daylight
07 Dec - 16:46:01 10° NE 16:49:54 13° ENE 16:53:44 10° E daylight
07 Dec - 18:39:46 10° NNW 18:49:41 82° W 18:59:24 10° S visible
08 Dec - 05:31:28 10° SSE 05:37:36 22° E 05:43:51 10° NE visible
08 Dec - 07:28:46 10° SW 07:36:41 44° WNW 07:44:55 10° N daylight
08 Dec - 18:06:21 10° N 18:16:13 70° ENE 18:25:51 10° SSE visible
08 Dec - 20:09:54 10° WNW 20:15:14 16° W 20:20:33 10° SW visible
